Location: Oberkirch
(48.5323°N, 8.0787°E)
Time: 19:02:06
(UTC+00:00)

Vanguard 1 - Visible Passes

Search period start: 18 February 2026 00:00
Search period end: 28 February 2026 00:00
Orbit: 652 x 3819 km, 34.3° (Epoch: 17 February)

Date Brightness Start Highest point End Pass type
(mag) Time Alt. Az. Time Alt. Az. Time Alt. Az.
18 Feb 13.1 17:41:03 10° WSW 17:55:32 49° S 18:16:46 10° ESE visible
18 Feb 13.5 20:02:48 10° W 20:19:13 36° SSW 20:31:33 23° SSE visible
18 Feb 14.0 22:30:50 10° WSW 22:41:27 16° SW 22:44:10 15° SW visible
19 Feb 13.2 18:00:17 10° WSW 18:14:51 47° S 18:35:50 10° SE visible
19 Feb 13.6 20:22:38 10° W 20:38:18 31° SSW 20:50:12 20° S visible
19 Feb 14.1 22:56:59 10° WSW 23:00:04 10° SW 23:02:49 10° SW visible
20 Feb 13.2 18:19:36 10° W 18:34:08 44° SSW 18:54:42 10° SE visible
20 Feb 13.7 20:42:48 10° W 20:57:18 26° SW 21:08:56 17° S visible
21 Feb 13.4 18:39:02 10° W 18:53:24 39° SSW 19:13:17 10° SE visible
21 Feb 13.9 21:03:29 10° W 21:16:14 21° SW 21:27:47 13° S visible
22 Feb 13.5 18:58:35 10° W 19:12:38 35° SSW 19:31:33 10° SSE visible
22 Feb 14.1 21:25:16 10° WSW 21:35:07 15° SW 21:45:52 10° SSW visible
23 Feb 13.6 19:18:21 10° W 19:31:49 30° SSW 19:49:25 10° SSE visible
23 Feb 14.2 21:51:33 10° SW 21:53:57 10° SW 21:56:23 10° SW visible
24 Feb 13.2 17:16:13 10° WSW 17:28:10 40° SSW 17:46:46 10° SE visible
24 Feb 13.8 19:38:28 10° W 19:50:56 25° SW 20:06:43 10° S visible
25 Feb 13.4 17:35:36 10° WSW 17:47:26 36° SSW 18:05:22 10° SE visible
25 Feb 14.0 19:59:09 10° WSW 20:10:02 19° SW 20:23:12 10° S visible
26 Feb 13.5 17:55:08 10° WSW 18:06:42 32° SSW 18:23:38 10° SSE visible
26 Feb 14.2 20:21:05 10° WSW 20:29:04 14° SW 20:38:12 10° SSW visible
27 Feb 13.7 18:14:55 10° WSW 18:25:56 27° SSW 18:41:27 10° SSE visible
